DW3195 Weather Reports


time (UTC)temp
F
wind
direction
speed
knots
gust
knots
rain 1hr
in
rain 24hr
in
rain mn
in
humidity
%
barometer
mb
20260905224504 80 191 0.0 0.9 0.00 0.41 0.09 74 915.7
20260905224004 80 254 0.0 0.9 0.00 0.41 0.09 72 916.8
20260905223504 81 171 0.9 1.7 0.00 0.41 0.09 72 917.5
20260905223004 82 239 0.0 2.6 0.00 0.41 0.09 71 918.3
20260905221504 83 354 0.0 2.6 0.00 0.41 0.09 63 923.1
20260905221004 84 303 1.7 2.6 0.00 0.41 0.09 64 922.5
20260905220503 84 15 1.7 2.6 0.00 0.41 0.09 61 923.6
20260905220004 85 246 1.7 4.3 0.00 0.42 0.09 61 923.4
20260905214504 85 267 2.6 4.3 0.00 0.42 0.09 58 923.8
20260905214004 85 316 0.9 5.2 0.00 0.42 0.09 57 924.0
20260905213506 85 344 1.7 4.3 0.00 0.42 0.09 58 924.0
20260905213006 85 19 0.9 6.1 0.00 0.42 0.09 57 924.0
20260905211505 84 118 0.9 2.6 0.00 0.42 0.09 57 923.9
20260905211005 84 243 1.7 4.3 0.00 0.42 0.09 59 923.8
20260905210005 85 257 2.6 6.1 0.00 0.42 0.09 58 923.8
20260905204505 85 260 1.7 5.2 0.00 0.42 0.09 59 923.6
20260905204005 84 278 0.9 5.2 0.00 0.42 0.09 62 921.3
20260905203505 84 248 1.7 4.3 0.00 0.42 0.09 60 921.0
20260905203005 84 290 1.7 6.1 0.00 0.48 0.09 60 923.2
20260905201505 83 74 1.7 6.1 0.00 0.71 0.09 59 923.6
20260905201005 82 324 1.7 4.3 0.00 0.71 0.09 62 922.9
20260905200005 82 203 3.5 7.0 0.00 0.71 0.09 62 923.3
20260905194505 82 195 1.7 5.2 0.00 0.71 0.09 63 923.4
20260905194005 82 261 2.6 5.2 0.00 0.71 0.09 66 921.1
20260905193505 81 162 2.6 5.2 0.00 0.71 0.09 65 923.0
20260905193005 81 266 2.6 7.8 0.00 0.71 0.09 64 922.0
20260905191005 81 281 3.5 6.1 0.00 0.71 0.09 67 914.7
20260905190505 80 237 2.6 6.1 0.00 0.71 0.09 70 914.9
20260905190005 80 141 2.6 8.7 0.02 0.71 0.09 68 921.1
20260905184505 79 250 3.5 7.8 0.02 0.71 0.09 68 916.3
20260905183505 79 331 3.5 7.8 0.02 0.71 0.09 70 920.5
20260905183005 79 326 2.6 8.7 0.02 0.71 0.09 72 917.2
20260905181005 77 277 3.5 7.0 0.02 0.71 0.09 76 911.8
20260905180504 76 235 4.3 7.0 0.02 0.71 0.09 75 912.7
20260905180004 76 241 3.5 6.1 0.00 0.69 0.08 79 911.5
20260905174504 75 270 0.0 2.6 0.00 0.69 0.08 86 911.8
20260905174005 74 216 1.7 4.3 0.00 0.69 0.08 84 911.4
20260905173505 73 257 1.7 2.6 0.00 0.69 0.08 85 912.4
20260905171504 70 337 1.7 4.3 0.05 0.69 0.08 86 912.3
20260905171004 70 287 1.7 4.3 0.06 0.69 0.08 89 913.3
20260905170004 69 2 2.6 6.1 0.07 0.69 0.08 90 915.3
20260905164005 69 291 2.6 4.3 0.08 0.69 0.08 93 920.6
20260905163505 70 321 2.6 6.1 0.09 0.69 0.09 93 920.8
20260905163005 70 268 1.7 4.3 0.09 0.69 0.09 93 920.8
20260905161504 71 268 1.7 4.3 0.03 0.63 0.03 92 919.4
20260905161005 71 284 1.7 5.2 0.02 0.62 0.02 91 919.0
20260905160505 71 241 1.7 4.3 0.01 0.61 0.01 91 918.9
20260905160005 71 206 1.7 5.2 0.00 0.60 0.00 91 918.5
20260905154504 72 40 0.0 0.9 0.00 0.60 0.00 90 916.8
20260905153504 73 253 0.0 1.7 0.00 0.60 0.00 89 915.0
20260905153005 73 180 0.9 4.3 0.00 0.60 0.00 88 914.3
20260905151505 74 282 1.7 5.2 0.00 0.60 0.00 87 914.0
20260905151004 74 249 0.9 4.3 0.00 0.60 0.00 87 913.9
20260905150504 74 128 0.9 4.3 0.00 0.60 0.00 86 912.9
20260905150004 75 122 0.9 10.4 0.00 0.60 0.00 86 912.7
20260905144504 79 312 5.2 11.3 0.00 0.60 0.00 81 915.0
20260905144004 80 253 3.5 8.7 0.00 0.60 0.00 78 916.0
20260905143504 80 257 0.9 4.3 0.00 0.60 0.00 81 913.6
20260905143004 79 239 2.6 5.2 0.00 0.60 0.00 81 913.9
20260905141504 78 205 1.7 5.2 0.00 0.60 0.00 85 911.8
20260905141005 77 185 1.7 4.3 0.00 0.60 0.00 86 911.8
20260905140005 75 247 1.7 5.2 0.00 0.60 0.00 90 912.8
20260905134504 74 217 1.7 4.3 0.00 0.60 0.00 95 918.1
20260905134005 73 183 1.7 4.3 0.00 0.60 0.00 96 919.5
20260905133504 72 228 1.7 4.3 0.00 0.60 0.00 94 920.3
20260905131503 71 256 0.0 1.7 0.00 0.60 0.00 96 924.0
20260905131004 71 189 0.0 1.7 0.00 0.60 0.00 96 924.0
20260905130504 71 206 0.0 1.7 0.00 0.60 0.00 96 924.0
20260905130004 70 186 0.9 1.7 0.00 0.60 0.00 96 924.0
20260905124503 67 224 0.0 1.7 0.00 0.60 0.00 95 923.0
20260905123503 66 223 0.9 1.7 0.00 0.60 0.00 95 922.5
20260905123005 65 264 0.0 1.7 0.00 0.60 0.00 95 922.4
20260905121506 65 153 0.0 1.7 0.00 0.60 0.00 95 921.9
20260905121005 65 181 0.0 1.7 0.00 0.60 0.00 95 921.8
20260905120006 64 175 0.9 1.7 0.00 0.60 0.00 95 921.6
20260905114006 64 315 0.0 1.7 0.00 0.60 0.00 95 921.4
20260905113505 64 97 0.0 0.9 0.00 0.60 0.00 95 921.4
20260905113005 64 84 0.0 1.7 0.00 0.60 0.00 95 921.4
20260905111505 64 350 0.0 1.7 0.00 0.60 0.00 95 921.1
20260905110006 64 329 0.0 1.7 0.00 0.60 0.00 95 921.0
20260905104005 64 80 0.0 0.9 0.00 0.60 0.00 95 921.1
20260905103506 64 204 0.0 0.9 0.00 0.60 0.00 95 921.1
20260905103005 64 39 0.0 0.9 0.00 0.60 0.00 95 921.2
20260905101505 64 170 0.0 0.9 0.00 0.60 0.00 95 921.2
20260905101005 64 196 0.0 0.9 0.00 0.60 0.00 95 921.2
20260905100505 64 125 0.0 1.7 0.00 0.60 0.00 95 921.2
20260905100005 64 151 0.0 1.7 0.00 0.60 0.00 95 921.2
20260905094505 64 152 0.0 0.9 0.00 0.60 0.00 95 921.0
20260905093505 64 63 0.0 0.9 0.00 0.60 0.00 95 921.0
20260905093005 64 159 0.0 0.9 0.00 0.60 0.00 95 920.9
20260905091505 64 185 0.0 1.7 0.00 0.60 0.00 95 920.9
20260905090505 64 245 0.0 0.9 0.00 0.60 0.00 95 920.9
20260905090005 64 164 0.0 1.7 0.00 0.60 0.00 95 920.9
20260905084505 64 192 0.0 0.9 0.00 0.60 0.00 95 920.8
20260905084005 64 133 0.0 0.9 0.00 0.60 0.00 95 920.9
20260905083505 64 173 0.0 1.7 0.00 0.60 0.00 95 920.9
20260905083005 64 147 0.0 0.9 0.00 0.60 0.00 95 920.9
20260905081504 64 233 0.9 1.7 0.00 0.60 0.00 95 921.0
20260905081005 64 181 0.0 1.7 0.00 0.60 0.00 95 921.1
20260905080505 64 188 0.0 0.9 0.00 0.60 0.00 95 921.1
20260905080005 64 157 0.9 1.7 0.00 0.60 0.00 95 921.2
20260905074504 64 35 0.0 0.9 0.00 0.60 0.00 95 921.2
20260905074005 64 183 0.0 1.7 0.00 0.60 0.00 95 921.2
20260905073504 64 24 0.9 1.7 0.00 0.60 0.00 95 921.1
20260905073005 64 154 0.0 0.9 0.00 0.60 0.00 95 921.2
20260905071504 64 0 0.0 0.9 0.00 0.60 0.00 95 921.4
20260905071005 64 171 0.0 0.9 0.00 0.60 0.00 95 921.4
20260905070505 63 225 0.0 0.9 0.00 0.60 0.00 95 921.4
20260905070004 63 271 0.0 0.9 0.00 0.60 0.00 95 921.4
20260905064505 64 147 0.0 1.7 0.00 0.60 0.00 95 921.5
20260905064004 64 98 0.0 0.9 0.00 0.60 0.00 95 921.7
20260905063504 64 20 0.0 0.9 0.00 0.60 0.00 95 921.7
20260905063005 64 86 0.0 0.9 0.00 0.60 0.00 95 921.8
20260905061504 64 156 0.0 0.0 0.00 0.60 0.00 95 922.0
20260905061004 64 174 0.0 0.9 0.00 0.60 0.00 95 922.1
20260905060005 64 37 0.0 0.9 0.00 0.60 0.00 95 922.1
20260905054504 64 193 0.0 0.9 0.00 0.60 0.00 95 922.3
20260905054004 64 183 0.0 0.9 0.00 0.60 0.00 95 922.4
20260905053504 64 132 0.0 0.9 0.00 0.60 0.00 95 922.4
20260905053004 64 107 0.0 1.7 0.00 0.60 0.00 95 922.5
20260905051004 64 348 0.0 0.9 0.00 0.60 0.00 95 922.6
20260905050504 64 206 0.0 0.9 0.00 0.60 0.00 95 922.6
20260905044504 65 6 0.0 0.9 0.30 0.60 0.00 95 922.7
20260905044004 65 279 0.0 0.9 0.30 0.60 0.00 95 922.7
20260905043504 65 116 0.0 0.9 0.30 0.60 0.00 95 922.8
20260905043004 65 130 0.0 0.9 0.30 0.60 0.00 95 922.9
20260905041504 65 359 0.0 0.9 0.30 0.60 0.00 95 923.0
20260905041004 65 169 0.0 0.9 0.30 0.60 0.00 95 923.0
20260905040004 65 239 0.0 0.9 0.00 0.30 0.00 95 923.1
20260905034504 65 39 0.0 0.9 0.00 0.30 0.30 95 923.1
20260905034004 65 7 0.0 0.9 0.00 0.30 0.30 95 923.1
20260905033504 65 163 0.0 0.9 0.00 0.30 0.30 95 923.1
20260905031505 66 177 0.0 0.9 0.00 0.30 0.30 95 923.2
20260905031005 66 91 0.0 0.9 0.00 0.30 0.30 95 923.2
20260905030505 66 156 0.0 1.7 0.00 0.30 0.30 95 923.3
20260905030005 66 63 0.0 1.7 0.00 0.30 0.30 95 923.3
20260905024506 67 154 0.0 1.7 0.00 0.30 0.30 95 923.4
20260905024006 67 25 1.7 1.7 0.00 0.30 0.30 95 923.3
20260905023506 67 268 0.0 0.9 0.00 0.30 0.30 95 923.3
20260905023005 67 0 0.9 1.7 0.00 0.30 0.30 95 923.3
20260905021505 67 212 0.0 1.7 0.00 0.30 0.30 95 923.4
20260905021005 67 194 0.0 1.7 0.00 0.30 0.30 95 923.3
20260905020505 67 15 0.9 2.6 0.00 0.30 0.30 95 923.3
20260905020005 67 160 0.0 1.7 0.00 0.30 0.30 95 923.2
20260905014006 68 276 0.0 1.7 0.00 0.30 0.30 95 923.0
20260905011506 68 267 0.9 1.7 0.00 0.30 0.30 95 923.1
20260905010506 69 358 0.9 2.6 0.00 0.30 0.30 95 923.2
20260905010005 69 333 0.0 2.6 0.00 0.30 0.30 95 923.4
20260905004505 69 119 1.7 1.7 0.00 0.30 0.30 95 923.4
20260905004005 70 293 0.0 1.7 0.00 0.30 0.30 94 923.4
20260905003505 70 24 1.7 2.6 0.00 0.30 0.30 95 923.7
20260905003005 70 93 0.0 1.7 0.00 0.30 0.30 94 923.7
20260905001505 71 339 0.0 1.7 0.00 0.30 0.30 93 923.8
20260905000505 71 333 1.7 2.6 0.00 0.30 0.30 93 923.6
20260905000005 72 326 0.9 1.7 0.00 0.30 0.30 92 923.4
20260904234505 73 126 0.0 0.9 0.00 0.30 0.30 91 922.5
20260904234005 73 230 0.0 1.7 0.00 0.30 0.30 90 922.1
20260904233504 73 301 0.0 1.7 0.00 0.30 0.30 90 921.5
20260904233005 74 349 0.9 2.6 0.00 0.30 0.30 90 921.2
20260904231004 76 351 1.7 2.6 0.00 0.30 0.30 87 918.1
20260904230505 76 266 0.0 0.9 0.00 0.30 0.30 85 917.1